Mumbai, India

2:00 PM IST on February 26, 2017 (GMT +0530)
Chhatrapati Shivaji International

Weather History for VABB - May, 2013

Change the Weather History Date:

Thursday, May 9, 2013

  Actual Average Record
Temperature  
Mean Temperature 84 °F -  
Max Temperature 91 °F 88 °F 96 °F (1997)
Min Temperature 76 °F 78 °F 76 °F (2013)
Cooling Degree Days 18    
Growing Degree Days 34 (Base 50)    
Moisture  
Dew Point 75 °F    
Average Humidity 71    
Maximum Humidity 84    
Minimum Humidity 50    
Precipitation  
Precipitation 0.00 in - - ()
Sea Level Pressure  
Sea Level Pressure 29.77 in    
Wind  
Wind Speed 6 mph ()    
Max Wind Speed 15 mph    
Max Gust Speed 23 mph    
Visibility 2.5 miles    
Events      
Averages and records for this station are not official NWS values.
T = Trace of Precipitation, MM = Missing Value Source: Averaged Metar Reports

Daily Weather History Graph

Daily Weather History Graph

Search for Another Location

Airport or City:

Trip Planner

Search our weather history database for the weather conditions in past years. The results will help you decide how hot, cold, wet, or windy it might be!

Date:

Astronomy

May. 09, 2013 Rise Set
Actual Time 6:06 AM IST 7:03 PM IST
Civil Twilight 5:43 AM IST 7:27 PM IST
Nautical Twilight 5:15 AM IST 7:54 PM IST
Astronomical Twilight 4:47 AM IST 8:22 PM IST
Moon 5:27 AM IST (5/9) 6:36 PM IST (5/9)
Length of Visible Light 13h 43m
Length of Day
12h 57m
Waning Crescent, 1% of the Moon is Illuminated
May 9
Waning Crescent
May 10
New
May 18
First Quarter
May 25
Full
Jun 1
Last Quarter

Hourly Weather History & Observations

Time (IST) Temp. Heat Index Dew Point Humidity Pressure Visibility Wind Dir Wind Speed Gust Speed Precip Events Conditions
12:10 AM 84.2 °F 92.3 °F 75.2 °F 74% 29.77 in 2.5 mi WNW 5.8 mph - N/A   Haze
12:40 AM 84.2 °F 92.3 °F 75.2 °F 74% 29.77 in 2.5 mi WNW 3.5 mph - N/A   Haze
1:10 AM 84.2 °F 92.3 °F 75.2 °F 74% 29.77 in 2.5 mi WNW 4.6 mph - N/A   Haze
1:40 AM 84.2 °F 92.3 °F 75.2 °F 74% 29.77 in 2.5 mi NW 4.6 mph - N/A   Haze
2:10 AM 82.4 °F 89.5 °F 75.2 °F 79% 29.74 in 2.5 mi West 3.5 mph - N/A   Haze
2:30 AM 81 °F - 76 °F 81% 29.75 in 1 mi Calm Calm - -   Haze
2:40 AM 82.4 °F 89.5 °F 75.2 °F 79% 29.74 in 2.5 mi Calm Calm - N/A   Haze
3:10 AM 82.4 °F 89.5 °F 75.2 °F 79% 29.74 in 2.5 mi North 5.8 mph - N/A   Haze
3:40 AM 82.4 °F 89.5 °F 75.2 °F 79% 29.74 in 2.5 mi North 3.5 mph - N/A   Haze
4:10 AM 82.4 °F 89.5 °F 75.2 °F 79% 29.74 in 2.5 mi Calm Calm - N/A   Haze
4:40 AM 82.4 °F 89.5 °F 75.2 °F 79% 29.74 in 2.5 mi Calm Calm - N/A   Haze
5:10 AM 82.4 °F 89.5 °F 75.2 °F 79% 29.74 in 2.2 mi East 3.5 mph - N/A   Haze
5:30 AM 80 °F - 76 °F 84% 29.75 in 1 mi Calm Calm - -   Haze
5:40 AM 82.4 °F 90.9 °F 77.0 °F 84% 29.77 in 2.2 mi South 4.6 mph - N/A   Haze
6:40 AM 82.4 °F 89.5 °F 75.2 °F 79% 29.80 in 2.2 mi South 8.1 mph - N/A   Haze
7:10 AM 82.4 °F 89.5 °F 75.2 °F 79% 29.80 in 2.2 mi SSE 3.5 mph - N/A   Haze
7:40 AM 84.2 °F 92.3 °F 75.2 °F 74% 29.83 in 2.2 mi SSW 10.4 mph - N/A   Haze
8:10 AM 84.2 °F 92.3 °F 75.2 °F 74% 29.83 in 2.2 mi SSE 9.2 mph - N/A   Haze
8:30 AM 86 °F - 76 °F 65% 29.83 in 1 mi South 6.9 mph - -   Smoke
8:40 AM 86.0 °F 95.1 °F 75.2 °F 70% 29.83 in 2.2 mi South 11.5 mph - N/A   Haze
9:10 AM 86.0 °F 95.1 °F 75.2 °F 70% 29.86 in 2.5 mi South 11.5 mph - N/A   Smoke
9:40 AM 87.8 °F 97.6 °F 75.2 °F 66% 29.86 in 2.5 mi South 9.2 mph - N/A   Smoke
10:10 AM 86.0 °F 93.4 °F 73.4 °F 66% 29.86 in 2.5 mi WSW 11.5 mph - N/A   Smoke
10:40 AM 87.8 °F 97.6 °F 75.2 °F 66% 29.86 in 2.5 mi SSW 11.5 mph - N/A   Smoke
11:10 AM 87.8 °F 95.6 °F 73.4 °F 62% 29.83 in 2.5 mi SW 10.4 mph - N/A   Smoke
11:30 AM 90 °F - 74 °F 50% 29.82 in 2 mi West 10.4 mph - -   Mostly Cloudy
12:10 PM 89.6 °F 98.2 °F 73.4 °F 59% 29.83 in 3.1 mi West 11.5 mph - N/A   Smoke
12:40 PM 87.8 °F 93.8 °F 71.6 °F 58% 29.80 in 3.1 mi West 11.5 mph - N/A   Smoke
1:10 PM 89.6 °F 98.2 °F 73.4 °F 59% 29.80 in 3.1 mi West 11.5 mph - N/A   Smoke
1:40 PM 87.8 °F 95.6 °F 73.4 °F 62% 29.77 in 3.1 mi WNW 11.5 mph - N/A   Smoke
2:10 PM 87.8 °F 97.6 °F 75.2 °F 66% 29.74 in 3.1 mi West 9.2 mph - N/A   Smoke
2:30 PM 91 °F - 76 °F 54% 29.73 in 2 mi West 11.5 mph - -   Partly Cloudy
2:40 PM 87.8 °F 97.6 °F 75.2 °F 66% 29.71 in 3.1 mi West 11.5 mph - N/A   Smoke
3:10 PM 87.8 °F 97.6 °F 75.2 °F 66% 29.71 in 3.1 mi West 13.8 mph - N/A   Smoke
3:40 PM 87.8 °F 97.6 °F 75.2 °F 66% 29.71 in 3.1 mi West 11.5 mph 23.0 mph N/A   Smoke
4:10 PM 87.8 °F 97.6 °F 75.2 °F 66% 29.71 in 3.1 mi West 9.2 mph 20.7 mph N/A   Smoke
4:40 PM 87.8 °F 97.6 °F 75.2 °F 66% 29.71 in 3.1 mi West 11.5 mph - N/A   Smoke
5:10 PM 87.8 °F 97.6 °F 75.2 °F 66% 29.71 in 3.1 mi WNW 8.1 mph 19.6 mph N/A   Smoke
5:30 PM 89 °F - 76 °F 57% 29.70 in 1 mi NW 13.8 mph - -   Smoke
5:40 PM 86.0 °F 95.1 °F 75.2 °F 70% 29.71 in 3.1 mi WNW 13.8 mph - N/A   Smoke
6:10 PM 86.0 °F 95.1 °F 75.2 °F 70% 29.71 in 3.1 mi West 13.8 mph - N/A   Smoke
6:40 PM 86.0 °F 96.9 °F 77.0 °F 74% 29.71 in 3.1 mi WNW 12.7 mph - N/A   Smoke
7:10 PM 86.0 °F 95.1 °F 75.2 °F 70% 29.71 in 3.1 mi West 15.0 mph - N/A   Smoke
7:40 PM 86.0 °F 96.9 °F 77.0 °F 74% 29.74 in 3.1 mi West 10.4 mph - N/A   Smoke
8:10 PM 84.2 °F 92.3 °F 75.2 °F 74% 29.74 in 3.1 mi WNW 10.4 mph - N/A   Smoke
8:30 PM 85 °F - 76 °F 67% 29.75 in 1 mi NW 4.6 mph - -   Smoke
8:40 PM 84.2 °F 92.3 °F 75.2 °F 74% 29.77 in 3.1 mi WNW 8.1 mph - N/A   Haze
9:10 PM 86.0 °F 95.1 °F 75.2 °F 70% 29.77 in 2.5 mi NW 8.1 mph - N/A   Haze
9:40 PM 84.2 °F 92.3 °F 75.2 °F 74% 29.77 in 2.5 mi West 9.2 mph - N/A   Haze
10:10 PM 84.2 °F 92.3 °F 75.2 °F 74% 29.80 in 2.5 mi West 6.9 mph - N/A   Haze
10:40 PM 84.2 °F 94.1 °F 77.0 °F 79% 29.80 in 2.5 mi West 9.2 mph - N/A   Haze
11:10 PM 84.2 °F 94.1 °F 77.0 °F 79% 29.80 in 2.5 mi WNW 6.9 mph - N/A   Haze
11:30 PM 84 °F - 75 °F 69% 29.79 in 1 mi NW 4.6 mph - -   Haze
11:40 PM 84.2 °F 92.3 °F 75.2 °F 74% 29.80 in 2.5 mi WNW 6.9 mph - N/A   Haze